This is the latest recevied weather packets stored in our database for station/object KJ4YLO. If no packets are shown the sender has not sent any weather packets the latest 10 day(s).
| Time | Temp. | Humidity | Pressure | Rain* | Wind** | Luminosity | Snow |
|---|---|---|---|---|---|---|---|
| 1777838999 | 21.67° C | 32% | 1018 hPa | 0 mm | - | 558 W/m² | - |
| 1777838695 | 21.11° C | 34% | 1018 hPa | 0 mm | - | 556 W/m² | - |
| 1777838392 | 21.11° C | 34% | 1018.3 hPa | 0 mm | - | 556 W/m² | - |
| 1777838089 | 21.11° C | 32% | 1018.3 hPa | 0 mm | - | 544 W/m² | - |
| 1777837785 | 21.11° C | 32% | 1018.3 hPa | 0 mm | - | 659 W/m² | - |
| 1777837483 | 21.11° C | 32% | 1018.3 hPa | 0 mm | - | 659 W/m² | - |
| 1777837178 | 21.67° C | 33% | 1018.6 hPa | 0 mm | - | 672 W/m² | - |
| 1777836874 | 21.67° C | 33% | 1018.6 hPa | 0 mm | - | 672 W/m² | - |
| 1777836569 | 20.56° C | 39% | 1019 hPa | 0 mm | - | 670 W/m² | - |
| 1777836266 | 20.56° C | 34% | 1019 hPa | 0 mm | - | 707 W/m² | - |
| 1777835962 | 20.56° C | 34% | 1019 hPa | 0 mm | - | 707 W/m² | - |
| 1777835660 | 21.11° C | 36% | 1019 hPa | 0 mm | - | 731 W/m² | - |
| 1777835356 | 20.56° C | 35% | 1019 hPa | 0 mm | - | 691 W/m² | - |
| 1777835054 | 20° C | 35% | 1019.4 hPa | 0 mm | - | 704 W/m² | - |
| 1777834750 | 20.56° C | 35% | 1019 hPa | 0 mm | - | 683 W/m² | - |
| 1777834447 | 20.56° C | 36% | 1019 hPa | 0 mm | - | 683 W/m² | - |
| 1777834146 | 20.56° C | 35% | 1019.4 hPa | 0 mm | - | 733 W/m² | - |
| 1777833843 | 20.56° C | 35% | 1019.4 hPa | 0 mm | - | 739 W/m² | - |
| 1777833539 | 20° C | 34% | 1019.4 hPa | 0 mm | - | 661 W/m² | - |
| 1777833236 | 20.56° C | 36% | 1019.7 hPa | 0 mm | - | 682 W/m² | - |
| 1777832933 | 20.56° C | 34% | 1019.4 hPa | 0 mm | - | 786 W/m² | - |
| 1777832632 | 20.56° C | 35% | 1019.7 hPa | 0 mm | - | 747 W/m² | - |
| 1777832328 | 20° C | 34% | 1019.7 hPa | 0 mm | - | 766 W/m² | - |
| 1777832026 | 20° C | 34% | 1019.7 hPa | 0 mm | - | 766 W/m² | - |
| 1777831722 | 20.56° C | 35% | 1019.7 hPa | 0 mm | - | 764 W/m² | - |
* Rain latest hour (hover to see other rain measurements)
** Current wind speed in m/s (hover to see current wind gust speed)